Regional Weather Roundup
Issued by NWS New Orleans/Baton Rouge, LA

Home | Current Version | Previous Version | Graphics & Text | Print | Product List | Glossary On
Versions: 1 2 3 4 5 6 7 8 9 10 11 12 13 14 15 16 17 18 19 20 21 22 23 24 25 26 27 28 29 30 31 32 33 34 35 36 37 38 39 40 41 42 43 44 45 46 47 48 49 50
471
ASUS44 KLIX 231801
RWRLIX
NEW ORLEANS REGIONAL WEATHER ROUNDUP
NATIONAL WEATHER SERVICE NEW ORLEANS LA
100 PM CDT SAT AUG 23 2014

NOTE: "FAIR" INDICATES FEW OR NO CLOUDS BELOW 12,000 FEET WITH NO
      SIGNIFICANT WEATHER AND/OR OBSTRUCTIONS TO VISIBILITY.
      SKY/WX - SKY CONDITION AND SIGNIFICANT WEATHER.
      TMP - AIR TEMPERATURE.     DP    - DEWPOINT TEMPERATURE.
      RH  - RELATIVE HUMIDITY.   PRES  - PRESSURE.
      HI  - HEAT INDEX.          WCI   - WIND CHILL INDEX.

*  THESE STATIONS ARE NOT NWS OR FAA STATIONS AND ARE NOT UNDER
   NWS QUALITY CONTROL.

LAZ038-040-048-061>063-065>067-069-231900-
SOUTHEAST LOUISIANA

CITY           SKY/WX    TMP DP  RH WIND       PRES   REMARKS
N.O. AUDUBON     N/A     96  78  56 MISG        N/A  HX 112
6HR MIN TEMP:  81; 6HR MAX TEMP:  96;

N.O. INTL ARPT MOSUNNY   93  76  57 N8        30.02F HX 105
6HR MIN TEMP:  79; 6HR MAX TEMP:  93;

N.O. LAKEFRONT SUNNY     90  77  65 NW9       30.02F HX 103
6HR MIN TEMP:  84; 6HR MAX TEMP:  90;

N.O. DOWNTOWN*   N/A     93  72  49 N5        30.02F HX 100
6HR MIN TEMP:  82; 6HR MAX TEMP:  93;

SLIDELL        SUNNY     95  73  48 VRB7      30.00F HX 104
6HR MIN TEMP:  76; 6HR MAX TEMP:  95;

BATON ROUGE    PTSUNNY   93  74  53 CALM      30.03F HX 103
6HR MIN TEMP:  76; 6HR MAX TEMP:  93;

BOOTHVILLE     SUNNY     91  77  63 VRB3      30.02F HX 104
6HR MIN TEMP:  82; 6HR MAX TEMP:  91;

BELLE CHASSE   PTSUNNY   92  73  53 CALM      30.01F HX 100
6HR MIN TEMP:  77; 6HR MAX TEMP:  95;

BOGALUSA*        N/A     93  72  50 CALM      30.03F HX 100
6HR MIN TEMP:  76; 6HR MAX TEMP:  95;

GALLIANO*      NOT AVBL
NEW ROADS*       N/A     91  76  63 N6        30.03F HX 103
6HR MIN TEMP:  74; 6HR MAX TEMP:  91;

GONZALES*        N/A     90  77  67 W3        30.01F HX 103
6HR MIN TEMP:  76; 6HR MAX TEMP:  91;

HAMMOND*       NOT AVBL
HOUMA*         MOSUNNY   93  70  46 N5        30.02F HX  99
PORT FOURCHON* PTCLDY    91  73  55 NE3G12    30.03F HX 100

$$

MSZ070-080>082-231900-
SOUTHERN MISSISSIPPI

CITY           SKY/WX    TMP DP  RH WIND       PRES   REMARKS
MCCOMB         PTSUNNY   92  72  51 NW9       30.04F HX  99
6HR MIN TEMP:  74; 6HR MAX TEMP:  92;

GULFPORT       CLOUDY    94  73  50 N7        29.99F HX 103
6HR MIN TEMP:  78; 6HR MAX TEMP:  97;

BILOXI         SUNNY     95  72  47 CALM      30.00F HX 104
6HR MIN TEMP:  81; 6HR MAX TEMP:  96;

PASCAGOULA     CLOUDY    94  74  52 VRB6      29.99F HX 104
6HR MIN TEMP:  75; 6HR MAX TEMP:  95;

STENNIS ARPT*  MOSUNNY  N/A N/A N/A N6        30.01F

$$

COASTAL OBSERVATIONS
LAKE AND NEARSHORE STATIONS

STATION/POSITION TIME  TEMP    WIND        PRES    WAVE
                       AIR SEA DIR/SP/G            HT/PER
                 (UTC) (F)     (DEG/KT/KT) (MB)    (FT/S)
PASCAGOULA       1700   91     180/  8/ 10 1015.6
WAVELAND YACHT   1700   91      20/  3/  4 1015.7
GRAND ISLE       1700   90 90  360/  5/  8 1017.4
SOUTHWEST PASS   1700   93 88  350/  7/ 10 1017.1
NEW CANAL        1700   88 85  330/  2/  4 1017.2
SHELL BEACH      1700   87 85  340/  4/  5 1016.5

OFFSHORE STATIONS

STATION/POSITION TIME  TEMP    WIND        PRES    WAVE
                       AIR SEA DIR/SP/G            HT/PER
                 (UTC) (F)     (DEG/KT/KT) (MB)    (FT/S)
64 S DAUPHIN ISL 1706   87 90  350/  6/  8 1016.5

$$




USA.gov is the U.S. government's official web portal to all federal, state and local government web resources and services.